DELTA 1 DEB, 21361

Orbit data source: Space-Track

DELTA 1 DEB, 21361 is space debris in SSO originally from a launch on Thu, 12 Jun 1975 UTC launched from the Air Force Western Test Range (AFWTR). Debris objects in space refer to the collection of defunct objects orbiting the Earth. Examples of debris include non-operational satellites, rocket bodies, and fragments generated from explosions, collisions, or faulty payload assembly.

Loading next visibility...
Identifier
21361, 1975-052CF
Orbit
SSO
Country
Flag of USUS
Related business
Manufacturer
Unknown
Mission
Spacecraft
Bus & Motor
Unknown
Mass
Unknown
Launch date (UTC)
1975-06-12 (51 years ago)
Launch vehicle
Unknown
Launch site
Air Force Western Test Range (AFWTR)
Object type
Payload
Rocket body
Debris
Shape & HBR
Unknown shape, 0.1 m
Radar Cross Section
Small (<0.1 m²)

Expand to show TLE details & history
Last TLE update: 6 months ago

TLE from 6 months ago
0 DELTA 1 DEB
1 21361U 75052CF  25297.77791894  .00001653  00000-0  89096-2 0  9998
2 21361  99.5937 234.2771 0737900 313.7256  68.8663 12.03585843131939
Epoch: 2025-10-24T18:40Z
TLE epoch observation values (Epoch: 2025-10-24T18:40:12.196Z)
Latitude
30.29561°
Longitude
-84.83107°
Altitude
1,493.944 km
Speed
7.196 km/s
True Right ascension
15h 14m 33s
True Declination
30° 09' 36"
Sunlit
Object was in daylight at epoch
Visualization orbit readout
Latitude
Unknown
Longitude
Unknown
Altitude
Unknown
Speed
Unknown
Apparent Right ascension
Unknown
Apparent Declination
Unknown
Sunlit
N/A
Visualization observer readout
Local Sidereal Time
11:18:29
Azimuth
Unknown
Elevation
Unknown
Doppler factor
Unknown
Orbital elements
Apogee altitude
2,255.626 km
Perigee altitude
1,069.015 km
Semi-major axis
8,040.458 km
Eccentricity
0.07379
Inclination
99.5937°
RAAN
234.2771°
Arg. of periapsis
313.7256°
True anomaly
76.99673°
Mean anomaly
68.8663°
Eccentric anomaly
72.90742°
Mean motion
3.01038 °/min
Orbital period
119.59 mins
BSTAR
0.0089096
Loading maneuver chart data...
Computing Atmospheric mass density...
Loading historical data...
Loading historical data...
Loading historical data...
Loading historical data...
Loading historical data...
Loading historical data...
Loading historical data...

Documentation

Showing up to 5 results
|